Location: Bern�tre
(50.1974°N, 2.0915°E)
Time: 09:14:36
(UTC+00:00)

Exosat Rocket - Pass Details

Date: 18 September 2020
Orbit: 760 x 2514 km, 72.3° (Epoch: 27 October)

Event Time Altitude Azimuth Distance (km) Brightness Sun altitude
Rises 20:59:51 0° 218° (SW) 3,584 6.9 -27.4°
Reaches altitude 10° 21:02:33 10° 223° (SW) 2,499 6.1 -27.8°
Maximum altitude 21:07:51 56° 302° (WNW) 926 4.1 -28.4°
Drops below altitude 10° 21:12:47 10° 21° (NNE) 2,318 6.2 -28.9°
Sets 21:15:13 0° 26° (NNE) 3,300 7.0 -29.2°
